Starlink 32173

operational
NORAD ID: 60586 Int'l Des: 2024-150 Owner: SPXS Country: US Constellation: starlink
LEOCIRCULAR

About Starlink 32173

Description loading...

Live Position

Loading 3D Globe...

Upcoming Passes

Altitude History

Altitude vs Time

uPlot chart will show altitude changes over time

Two-Line Element Set

1 60586U 24150D 25351.32838660 -.00000090 00000-0 90716-5 0 9997
2 60586 53.1619 329.4357 0001104 94.3457 265.7670 15.30192078 75431
Epoch: Dec 17, 2025 • Age: 11 hours

Current Status

Altitude 480.3 km
Velocity 7.63 km/s
Sub-Earth Point 49.92°N, 68.45°E
Launch Date Aug 20, 2024
Age 1.3 years
Type internet

Technical Details

Classification Payload
Mass 730.00 kg
Dry Mass 700.00 kg
Total Mass 730.00 kg
Length 0.30 m
Diameter 4.10 m
Span 29.00 m
Shape Box + pan
Manufacturer SPXS
Bus Type Starlink V2M
Phase Status In Orbit
Owner/State SPXS/US

Large Constellations

Loading constellations...